Showing default

IRIDIUM 137, 43076

Orbit data source: Space-Track

IRIDIUM 137, 43076 is a payload satellite owned by Iridium (US) in LEO that was launched on Sat, 23 Dec 2017 UTC via an FALCON 9 launch vehicle from the Air Force Western Test Range (AFWTR). Payload-class satellites include a variety of spacecraft equipped with specific instruments for various scientific and technological missions. These include communications satellites like Starlink; space stations such as the ISS; scientific satellites like the Hubble; Earth observation satellites from companies like Planet Labs, Umbra, and HawkEye 360; GPS; miniature CubeSats for education and research; and military/defense satellites.

Loading next visibility...
Identifier
43076, 2017-083G
Orbit
LEO
Last TLE update
9 hours ago
Origin
Manufacturer
OATK SSG Gilbert
Mission
Operational Commercial Communications
Bus & Motor
ELITEBUS, Unknown motor
Mass
860 kg wet, 700 kg dry
Launch date (UTC)
2017-12-23 (8 years ago)
Launch vehicle
FALCON 9
Launch site
Air Force Western Test Range (AFWTR)
Object type
Payload
Rocket body
Debris
Shape & HBR
Trap Box + 2 Pan, 9.4 m
Radar Cross Section
14.423 m², Large (>1 m²)

Expand to show TLE details & history

TLE from 9 hours ago
0 IRIDIUM 137
1 43076U 17083G   25183.87767437 -.00000012  00000-0 -11335-4 0  9999
2 43076  86.3974 108.1919 0001512  92.2955 267.8414 14.34217450394109
Epoch: 2025-07-02T21:03Z
TLE epoch observation values (Epoch: 2025-07-02T21:03:51.065Z)
Latitude
-0.00002°
Longitude
-128.92334°
Altitude
780.76 km
Speed
7.463 km/s
True Right ascension
07h 12m 46s
True Declination
0° 00' 00"
Sunlit
Object was in daylight at epoch
Visualization orbit readout
Latitude
-60.85674°
Longitude
57.36031°
Altitude
802.129 km
Speed
7.451 km/s
Apparent Right ascension
03h 53m 10s
Apparent Declination
-79° 05' 28"
Sunlit
Object is in full shadow
Visualization observer readout
Local Sidereal Time
18:19:03
Azimuth
170.262° S
Elevation
-48.314°
Doppler factor
1
Orbital elements
Apogee altitude
775.714 km
Perigee altitude
773.551 km
Semi-major axis
7,152.77 km
Eccentricity
0.00015
Inclination
86.3974°
RAAN
108.1919°
Arg. of periapsis
92.2955°
True anomaly
Unknown
Mean anomaly
267.8414°
Eccentric anomaly
Unknown
Mean motion
3.58783 °/min
Orbital period
100.34 mins
BSTAR
-0.000011335
Loading maneuver chart data...
Loading SW <> Apogee altitude chart data...
Loading historical data...
Loading historical data...
Loading historical data...
Loading historical data...
Loading historical data...
Loading historical data...
Loading historical data...

IRIDIUM 137 Visibility forecast

Observer location: undefined°, undefined°

Span
Click to sort rows by Start time (UTC) header in descending order
Start Az.
Max El. time (UTC)
Max El. Az.
Max El.
End time (UTC)
End Az.
9 mins2025-07-03 07:41:21.547Z341.736° N2025-07-03 07:45:21.547Z283.187° WNW34.73°2025-07-03 07:50:21.547Z203.263° SW
8 mins2025-07-03 18:57:21.547Z149.726° SSE2025-07-03 19:01:21.547Z77.688° E33.379°2025-07-03 19:05:21.547Z19.598° NNE
6 mins2025-07-03 20:39:21.547Z245.584° WSW2025-07-03 20:42:21.547Z289.078° WNW19.715°2025-07-03 20:45:21.547Z327.479° NNW
|